Theta_e
346 347 346 348 348 348 349 351 351 351 351 350 350 350 349 349 349 349 349 348 347 347 347 347 347 346 347 346 347 347 346 346 345 345 345 344 344 344 344 344 344 345 345 345 344 344 344 343 342 342 344 344 344 338 341 334 334 334 333 332 333 333
346 346 347 347 347 347 348 347 348 348 349 349 350 350 348 347 348 348 348 347 347 345 344 345 346 347 344 345 345 345 345 345 345 345 344 344 343 343 344 342 344 344 345 345 345 342 343 342 344 344 344 344 343 339 341 336 334 333 333 332 333 335
344 342 342 342 345 346 346 346 347 348 348 348 349 347 347 347 347 346 346 345 348 350 346 346 345 345 345 345 344 345 345 344 344 344 344 344 343 343 342 342 342 344 345 345 343 342 341 341 340 343 344 342 339 343 340 336 333 332 332 332 331 336
341 342 343 341 345 344 344 344 344 346 347 347 347 342 343 345 344 346 345 345 347 347 348 346 346 346 345 343 343 344 344 344 343 343 343 342 343 342 343 342 340 341 343 344 341 342 341 340 340 341 340 342 344 336 339 334 330 328 328 332 332 339
343 344 341 340 341 343 342 344 341 343 344 346 345 342 343 344 345 345 344 343 343 344 345 345 344 343 343 342 342 342 342 342 341 340 343 341 340 339 341 337 337 338 335 339 341 341 342 341 343 344 346 342 343 340 339 336 333 331 330 331 333 338
341 341 340 340 342 340 339 338 342 345 346 345 344 343 343 343 343 343 341 341 341 344 344 344 342 342 342 342 340 339 338 339 339 338 341 338 338 338 336 335 334 331 332 336 338 339 343 345 342 345 342 340 339 339 335 335 335 334 334 333 334 336
338 339 338 340 341 339 341 344 345 345 342 344 345 342 342 342 342 343 341 340 340 342 343 343 343 343 342 340 339 339 338 337 336 336 337 337 335 336 335 334 333 333 335 339 337 339 341 343 344 339 341 339 340 334 337 336 335 335 335 335 336 337
338 339 339 343 342 340 340 343 343 343 345 345 344 342 342 342 341 342 341 341 343 342 342 342 341 341 342 340 339 339 340 335 334 334 336 338 334 333 333 334 335 335 337 337 334 338 338 342 341 341 341 340 338 337 339 336 335 336 336 336 337 338
338 339 340 343 344 342 341 341 339 342 343 345 344 342 343 342 341 342 343 343 344 343 343 342 342 342 341 342 346 346 344 341 338 338 339 341 338 337 338 338 336 336 335 334 338 340 336 342 342 341 340 339 335 337 340 338 337 335 336 336 336 338
339 339 342 343 340 341 342 340 341 341 343 344 344 343 344 343 342 343 344 344 344 345 344 344 344 344 343 342 344 344 343 339 344 341 341 342 340 341 341 338 338 335 333 335 337 335 338 337 338 336 338 337 337 335 334 337 340 336 337 337 337 338
341 343 343 341 341 341 340 338 341 344 345 343 343 343 341 341 341 340 342 344 344 344 345 344 343 342 343 343 341 341 340 342 342 343 343 344 347 346 345 342 344 341 339 336 334 335 336 338 339 337 338 336 335 334 336 340 341 341 336 337 336 337
342 343 342 341 342 343 341 339 340 343 344 343 343 342 341 341 339 339 341 344 344 344 344 342 340 339 339 338 341 341 344 343 343 345 344 346 344 345 344 339 343 345 345 342 336 337 340 337 337 338 338 335 335 335 337 339 340 338 334 335 336 336
344 345 343 342 343 343 342 341 342 343 343 343 342 342 341 339 339 341 341 343 344 343 344 341 339 339 339 340 341 345 341 344 344 345 348 344 345 346 347 345 342 345 343 340 338 337 338 339 336 338 336 336 337 335 336 336 340 335 335 333 334 337
345 346 344 342 342 342 341 339 339 341 341 341 342 342 343 342 342 342 342 343 343 342 342 341 340 339 339 337 339 341 345 341 343 344 346 344 345 345 345 344 341 338 342 335 335 340 337 336 338 338 337 336 334 334 336 338 337 333 336 335 335 335
346 346 344 343 342 342 342 339 340 340 340 340 341 342 343 343 343 343 344 343 342 341 340 339 340 339 337 338 338 344 343 342 343 342 341 345 344 343 345 342 343 337 338 337 335 335 335 335 337 334 335 335 333 336 336 334 338 334 334 334 334 333
345 344 344 344 343 342 342 340 340 342 342 342 340 342 344 343 343 342 343 341 339 339 338 338 338 337 338 337 342 343 344 345 341 342 342 343 345 343 342 343 341 341 339 336 335 334 336 333 337 335 335 335 336 334 333 333 334 334 335 334 333 335
343 343 344 344 342 343 342 340 341 341 341 342 340 341 342 342 342 340 343 342 339 339 338 337 336 338 335 341 340 341 341 347 343 345 346 347 343 344 343 341 337 341 340 337 335 334 333 334 334 334 335 335 335 335 331 331 333 333 334 332 332 335
343 343 344 342 341 341 340 341 340 341 341 341 339 340 341 341 339 341 341 342 339 339 338 338 336 336 344 342 344 341 341 345 344 345 344 344 343 342 342 341 339 340 339 335 335 333 334 336 335 334 335 334 335 335 334 332 332 332 332 333 333 332
343 344 343 342 341 340 341 341 343 341 340 343 338 337 339 340 340 338 339 339 338 339 340 340 341 341 345 339 338 343 341 345 344 344 345 340 339 340 342 342 339 341 339 337 336 335 333 335 333 333 333 333 335 335 335 334 332 331 332 333 333 333
341 341 341 341 340 338 338 338 337 339 337 335 337 337 339 343 339 338 341 341 338 343 338 343 340 341 343 340 339 342 342 343 343 344 341 340 338 339 339 340 340 338 336 334 337 335 335 333 332 333 332 333 333 334 334 333 331 330 331 332 332 332
338 337 339 337 337 336 336 335 337 335 336 337 336 335 339 340 340 338 340 339 338 342 340 341 341 342 345 345 344 343 342 342 342 340 342 340 339 340 341 341 338 340 336 332 334 335 334 334 330 330 331 331 331 333 334 332 330 331 332 333 334 332
338 337 336 339 337 337 337 335 335 335 335 337 335 337 337 339 339 339 339 340 339 340 340 340 343 342 345 344 343 343 341 342 343 340 340 340 340 340 339 339 338 335 337 333 334 335 334 332 327 325 324 324 327 329 328 330 330 329 331 333 332 332
339 334 336 337 338 337 339 341 339 337 338 335 340 340 339 342 338 339 342 341 340 338 337 337 340 343 343 343 343 342 342 344 342 342 340 339 338 338 338 337 337 335 332 334 334 338 336 336 326 328 328 323 320 319 324 327 329 329 329 331 330 330
335 336 338 339 338 339 340 341 341 341 343 340 336 337 339 341 340 339 338 342 340 343 336 338 339 341 340 342 343 341 341 338 341 341 339 338 337 337 337 337 336 336 335 329 329 332 336 335 331 326 320 321 320 320 316 318 321 326 329 330 329 330
337 337 338 338 336 338 336 337 339 339 339 336 338 337 335 335 337 340 338 338 340 340 342 342 341 340 340 342 343 343 340 340 341 340 339 338 337 336 335 336 337 335 333 332 328 331 332 335 334 334 327 321 319 317 317 319 320 320 327 327 329 330
338 338 337 336 336 336 334 335 335 333 331 332 331 331 330 331 332 334 335 342 341 340 341 341 340 339 338 339 339 340 342 339 340 340 340 338 336 336 336 334 335 335 335 334 331 329 329 333 334 333 333 331 328 321 319 321 320 313 325 327 327 329
338 338 339 335 335 337 336 335 334 333 332 331 330 331 335 334 334 336 340 338 339 343 340 341 338 338 339 339 341 341 343 340 339 341 339 340 339 335 334 333 335 334 334 334 334 329 329 330 333 334 333 334 333 331 330 322 318 319 315 321 326 326
338 338 338 336 334 335 335 336 335 334 333 333 333 332 334 336 336 337 338 338 339 341 339 339 340 337 339 339 340 340 341 342 340 339 339 339 340 340 341 339 338 337 336 335 334 332 330 331 328 328 333 331 332 333 330 329 327 321 318 315 318 325
339 338 336 334 332 334 335 336 336 335 334 336 337 335 335 336 334 336 338 339 340 337 339 340 339 339 338 337 338 339 339 339 340 337 335 335 337 336 337 340 338 338 336 336 335 335 332 330 331 329 329 328 330 330 329 329 329 326 320 317 316 319
338 336 332 332 332 332 335 336 335 335 334 332 335 336 337 334 336 338 337 338 339 337 337 340 340 338 338 337 338 338 338 337 339 338 336 335 336 337 336 336 339 338 337 336 337 335 333 332 332 333 332 331 329 326 326 325 326 325 324 323 317 317
337 332 331 331 331 330 333 335 333 335 333 331 332 335 333 334 335 333 331 335 337 338 338 337 340 340 341 338 339 339 338 337 339 341 337 335 337 334 337 337 338 338 337 336 336 335 334 334 335 333 330 329 326 328 325 323 322 323 322 320 318 318
334 332 331 333 331 330 331 332 333 333 332 332 333 332 330 331 334 333 333 334 336 337 336 337 338 337 337 338 340 339 340 338 337 339 339 339 337 336 336 337 338 338 337 336 336 334 333 333 332 331 331 333 332 331 330 327 326 325 324 323 322 318
329 331 332 334 330 329 331 331 331 332 332 333 335 334 332 334 335 334 333 333 333 333 334 334 336 335 338 336 338 338 338 338 337 338 339 338 338 339 337 337 336 336 336 335 335 334 333 333 333 330 332 332 331 331 331 332 331 330 329 326 324 318
329 332 332 331 327 326 329 331 333 332 333 333 333 335 335 335 336 335 335 333 333 333 334 334 335 336 337 335 338 339 339 338 338 338 339 338 337 339 339 336 337 336 334 335 335 335 334 334 335 332 333 331 330 329 331 333 332 331 327 325 324 320
329 329 329 330 330 328 329 330 331 332 331 332 333 333 331 330 334 336 335 334 336 336 335 334 335 337 336 337 337 336 338 338 337 337 336 337 336 335 339 337 338 336 337 336 335 335 334 333 334 332 333 333 333 331 331 332 333 332 330 327 326 324
329 327 327 329 329 329 329 330 331 330 330 332 332 332 330 328 330 333 335 335 336 337 336 335 336 335 335 337 335 336 337 337 337 336 336 336 337 334 336 336 337 338 335 334 335 334 334 333 333 334 332 333 332 333 333 332 332 332 331 328 329 330
329 329 327 329 328 328 330 330 329 330 331 332 331 330 329 328 329 334 336 337 334 336 336 336 335 335 335 336 335 335 333 335 337 337 338 337 335 335 334 335 334 336 334 336 334 332 334 334 334 334 334 333 333 331 333 333 332 332 334 331 330 331
Wind_Speed
10 12 11 9 8 8 10 13 12 13 15 15 13 14 13 13 12 11 11 11 10 7 6 6 8 7 12 8 8 11 12 11 10 10 10 9 8 7 6 6 5 6 7 8 7 6 4 3 4 6 9 10 12 6 4 8 10 8 7 6 6 7
10 11 10 8 7 7 7 8 9 9 9 11 12 13 11 8 9 7 11 9 6 6 6 6 5 9 6 8 9 12 11 11 10 9 9 9 8 7 6 6 6 6 7 7 8 3 2 3 5 6 7 10 7 6 1 6 8 8 8 7 6 6
10 8 5 5 5 7 7 6 7 7 7 10 11 10 8 9 8 7 7 6 3 1 4 5 5 7 7 9 9 12 11 11 10 9 8 7 7 6 5 6 6 6 7 8 6 4 3 2 3 6 7 6 4 5 4 8 8 8 8 6 5 9
11 7 7 3 3 7 6 5 5 5 6 6 8 7 4 4 3 5 5 4 4 4 5 5 9 12 11 7 7 10 11 10 10 9 8 5 4 4 5 4 5 6 3 4 4 4 3 3 3 3 3 4 4 3 2 9 8 7 7 7 6 9
10 8 9 6 6 6 4 1 4 5 5 5 6 8 5 3 3 3 5 4 4 4 4 4 5 5 5 6 6 6 6 5 4 5 7 3 2 3 2 3 4 4 4 4 6 3 2 2 1 1 2 3 1 3 4 7 9 8 6 6 5 9
10 9 7 4 4 4 6 4 3 4 5 5 7 7 5 5 4 4 4 4 3 4 4 5 5 5 5 5 6 5 6 5 6 5 6 3 4 3 3 3 3 4 5 6 3 5 2 0 2 1 3 3 5 4 5 6 8 8 7 4 5 10
11 9 10 6 6 6 6 0 2 5 5 5 6 7 5 4 4 4 5 5 5 4 3 3 5 4 5 5 5 5 5 5 5 4 6 3 4 5 5 5 4 4 5 1 2 3 4 3 2 2 2 3 6 9 7 3 7 8 6 5 5 9
12 11 10 9 6 8 6 5 3 3 4 6 7 6 6 4 4 4 5 4 5 5 5 4 4 4 4 5 4 5 4 6 6 6 7 6 7 5 5 6 5 3 1 2 4 2 5 2 2 2 1 3 7 4 3 7 5 8 7 6 4 6
16 15 11 9 8 8 8 6 5 4 2 5 5 6 7 6 4 4 6 5 5 5 4 5 4 4 4 3 0 2 2 3 4 4 5 3 4 5 6 3 3 2 3 4 2 1 4 3 1 2 1 5 10 2 3 6 4 8 7 6 6 5
16 15 13 11 8 10 9 8 7 7 6 5 5 6 8 6 4 2 4 4 4 4 4 5 4 4 4 3 2 2 2 5 2 3 3 1 3 2 2 3 4 5 5 3 2 3 2 4 3 2 3 6 7 1 3 3 3 5 7 6 6 5
5 14 15 13 11 11 10 8 7 7 7 7 6 7 6 6 5 3 3 3 5 5 3 4 4 1 1 1 3 5 6 3 3 3 3 2 2 0 2 1 1 1 2 1 3 3 4 3 2 2 6 11 7 7 1 1 3 3 8 7 6 4
7 5 11 14 13 12 12 10 9 7 7 7 8 7 7 4 5 4 4 4 4 4 4 3 2 2 2 3 4 3 2 1 2 2 2 2 2 2 2 2 2 1 1 3 4 5 3 4 3 4 10 9 4 3 4 1 2 6 9 7 4 3
10 8 8 12 12 11 11 11 9 7 7 7 7 7 9 6 6 6 5 4 3 4 4 4 4 3 2 3 5 1 3 1 2 2 2 2 2 1 1 0 2 1 2 6 6 4 4 5 3 5 7 9 4 4 1 0 2 8 7 4 3 2
8 7 6 7 9 9 11 10 7 6 6 7 7 7 7 8 7 6 6 6 4 3 4 3 3 3 2 1 6 3 1 4 2 2 2 3 2 1 0 1 0 4 3 8 1 2 4 4 2 3 4 8 7 2 2 3 5 7 5 5 4 3
8 7 6 6 7 7 9 11 8 7 7 6 5 6 6 7 6 6 5 3 3 3 3 3 1 2 1 2 9 3 4 2 4 3 4 2 2 4 1 1 1 4 6 5 5 4 2 2 2 4 4 6 6 3 2 4 4 8 6 1 1 3
9 9 8 6 6 8 8 9 8 7 7 7 7 6 6 7 6 5 4 4 4 3 2 2 3 2 6 8 6 3 3 2 3 3 2 4 1 2 2 3 2 3 4 5 8 1 0 1 1 4 4 4 5 6 2 3 4 6 5 2 2 3
12 10 9 7 8 8 7 7 8 8 8 6 6 7 6 5 5 5 5 4 4 3 3 4 3 5 10 8 4 3 4 2 3 2 2 2 3 1 2 3 2 1 3 4 6 8 3 1 2 4 3 4 3 4 5 3 1 5 3 3 4 3
9 8 8 8 7 8 7 7 6 6 6 6 6 4 5 5 6 5 5 5 5 5 6 6 8 12 8 2 3 2 3 3 2 3 3 2 3 2 2 3 4 3 4 4 3 3 4 3 3 3 4 4 3 3 6 7 5 3 3 4 4 3
8 7 7 7 7 6 8 6 5 6 6 6 7 2 3 5 7 6 6 5 6 6 8 9 11 10 5 4 3 2 4 3 3 2 1 3 3 2 1 3 3 2 5 4 3 4 4 3 5 3 4 3 4 4 6 6 5 2 3 4 3 2
8 7 6 7 7 7 6 7 6 5 7 6 6 6 5 5 6 6 5 6 7 7 7 6 5 4 5 4 4 3 4 3 3 3 3 1 3 2 3 2 3 3 5 4 4 4 4 6 5 5 4 3 5 4 5 6 6 3 2 2 3 2
10 7 6 8 8 8 8 6 6 6 6 7 7 10 6 6 5 5 7 8 9 6 5 4 5 4 3 4 3 4 3 3 3 3 2 3 2 2 2 2 3 1 3 5 4 4 5 6 6 5 3 4 3 4 7 7 6 4 2 1 2 2
8 9 6 7 7 8 7 6 6 7 6 6 6 5 6 7 6 5 7 8 7 3 6 5 5 6 3 3 3 4 4 3 2 3 4 3 2 2 3 2 2 2 1 4 2 3 5 6 3 4 4 3 4 5 4 5 5 5 2 3 2 3
8 7 8 6 6 6 5 5 5 5 4 4 3 3 5 5 6 5 5 4 6 7 5 5 7 5 4 3 3 4 3 2 2 3 5 3 4 3 3 3 3 3 3 3 3 2 3 1 3 4 3 4 3 2 2 4 5 4 2 3 3 2
7 8 7 4 5 6 6 5 6 6 5 3 3 5 5 2 5 7 7 4 5 6 9 10 7 6 4 3 3 4 3 3 3 3 3 3 3 3 3 3 3 2 3 4 4 1 2 2 4 6 4 1 3 2 4 3 4 2 1 3 4 2
9 9 6 6 6 7 6 5 7 6 4 6 6 5 3 2 1 2 3 5 5 7 6 4 4 5 4 4 3 3 4 4 3 3 3 4 3 3 4 3 3 3 3 2 5 2 1 2 3 1 3 3 2 1 2 5 7 1 1 2 1 4
8 7 7 8 7 7 6 5 6 6 5 4 4 4 5 5 4 3 4 2 3 5 6 4 4 4 6 5 4 4 3 4 4 4 4 3 4 3 3 4 4 4 3 4 4 5 2 2 3 3 2 2 1 1 5 5 5 4 3 0 2 2
8 7 7 9 8 7 7 5 6 6 6 6 6 4 3 4 4 5 4 5 4 4 4 5 5 5 5 5 3 3 3 3 5 4 4 2 2 4 4 5 5 3 3 5 3 3 5 4 4 2 3 2 2 2 2 4 3 7 4 2 1 2
8 7 6 7 6 5 4 5 5 5 5 4 4 5 5 5 4 3 4 4 4 4 5 4 4 5 5 5 5 3 3 3 4 3 3 3 2 2 0 2 3 3 3 5 3 2 4 3 3 3 3 3 2 2 3 3 3 3 6 6 3 1
8 8 11 5 4 5 4 3 4 4 4 3 4 6 4 3 4 3 2 2 3 5 5 4 4 5 5 6 5 4 4 3 3 3 3 4 3 3 3 0 3 2 3 4 4 3 3 3 2 3 4 2 1 3 3 3 3 3 3 6 6 5
9 10 9 8 3 1 2 6 5 2 4 3 3 4 4 4 4 4 4 3 3 4 4 3 4 4 3 4 4 4 4 4 3 3 3 3 3 3 4 3 1 2 3 4 3 3 3 3 2 1 2 4 2 2 3 3 1 2 4 2 4 7
11 12 12 12 12 10 4 3 7 6 6 7 5 5 3 4 4 6 5 3 3 4 3 4 3 3 3 3 3 3 3 4 2 2 2 3 2 3 3 4 3 3 2 4 4 3 3 3 2 3 3 4 4 4 3 2 4 2 2 3 4 6
11 10 10 11 10 8 7 3 5 5 6 5 6 5 6 5 6 7 6 5 4 4 4 4 4 4 3 3 2 2 2 3 3 2 1 2 3 3 4 4 3 2 2 2 4 4 4 3 4 4 3 2 1 4 2 4 5 4 3 3 4 6
10 9 9 11 11 9 6 6 6 3 4 5 4 6 6 5 5 6 5 5 4 4 4 4 3 4 3 5 3 2 2 2 3 1 1 2 2 2 2 3 3 3 3 3 3 3 3 2 5 5 4 2 3 2 2 2 4 5 3 4 4 7
12 11 11 12 15 14 8 5 3 3 2 5 4 4 3 3 4 4 4 5 5 4 4 4 3 3 4 4 3 2 2 2 3 2 2 1 3 2 2 2 3 2 3 3 3 3 2 3 1 6 4 4 3 2 2 2 2 3 4 5 3 5
11 10 10 11 13 17 15 14 8 4 1 2 3 4 4 3 2 0 3 5 4 5 5 5 4 4 5 3 3 3 3 2 3 3 3 2 4 4 2 1 0 3 2 3 3 2 2 3 2 4 4 2 3 2 3 4 4 2 3 4 3 3
12 11 9 12 13 14 13 14 12 9 7 7 4 3 4 2 3 4 5 4 4 4 5 5 4 5 4 3 4 3 2 3 3 3 3 3 2 4 3 2 1 1 3 3 3 3 3 4 2 2 5 3 3 2 2 2 2 1 1 4 4 1
12 10 10 12 11 13 14 14 15 14 12 8 8 7 7 5 4 5 4 4 5 4 4 4 5 5 4 4 4 3 3 3 2 2 2 2 2 3 4 2 3 1 1 1 3 3 3 3 3 2 3 4 3 4 2 3 2 1 0 4 3 1
Wind_Direction
148 143 145 139 133 131 131 130 125 123 129 135 135 134 132 132 129 134 134 136 137 138 148 147 147 143 138 146 143 140 142 144 144 144 132 124 123 120 121 128 134 135 141 146 153 171 216 230 266 299 305 306 312 316 277 99 96 93 93 90 94 100
143 143 128 126 127 128 132 128 129 136 138 142 139 135 133 129 132 139 138 140 152 154 157 157 152 146 148 142 142 150 149 145 150 141 135 134 139 138 139 145 148 154 149 154 158 175 205 255 273 283 292 297 293 279 79 72 87 95 96 94 93 104
56 39 33 56 115 129 141 139 139 143 147 152 148 142 133 140 142 148 149 143 98 24 138 131 138 157 141 146 147 153 152 155 150 150 146 147 146 153 152 161 165 169 166 166 179 207 183 172 217 238 265 278 266 257 86 95 87 83 88 97 101 122
86 66 98 129 107 132 147 149 144 147 156 154 147 112 129 114 131 153 123 86 113 102 110 127 156 148 142 137 142 149 151 154 160 163 161 149 151 184 180 181 176 175 193 192 208 217 171 190 197 175 223 247 254 48 91 98 97 100 104 112 107 106
119 133 137 142 122 99 85 89 157 157 148 147 125 128 142 126 144 114 98 112 109 115 128 118 114 132 132 141 147 148 149 156 165 175 172 173 172 184 211 202 174 188 214 213 215 152 206 167 252 220 304 311 322 235 81 73 99 95 86 84 102 107
137 137 114 80 80 123 137 157 162 99 135 139 132 132 138 150 139 121 109 113 107 112 121 125 130 143 152 165 159 168 171 168 181 181 192 187 181 166 200 228 203 184 220 224 207 156 130 18 210 38 345 330 315 14 54 79 84 92 99 94 99 113
132 126 130 171 158 147 123 243 176 134 137 137 131 138 137 140 146 133 127 141 139 130 130 142 144 157 169 194 173 168 193 161 186 180 191 188 183 163 200 208 198 210 224 228 281 151 121 172 44 62 11 350 17 40 347 64 103 104 106 113 118 120
131 140 159 168 160 141 133 155 128 108 145 143 144 139 132 141 160 140 141 166 152 151 159 145 165 166 206 207 194 173 182 165 187 180 187 203 171 184 186 212 197 162 205 228 238 197 125 132 123 100 2 42 50 49 17 301 109 111 116 120 127 123
145 155 150 149 157 137 142 143 150 144 147 160 148 143 131 136 166 162 155 159 161 159 164 150 168 186 196 223 114 147 192 224 206 169 168 198 176 173 185 154 114 178 195 226 219 281 140 121 124 109 93 60 65 356 26 313 96 121 120 127 123 124
160 151 147 150 147 144 147 156 155 152 158 168 135 126 120 136 153 188 146 164 171 157 165 152 178 189 191 203 194 182 211 232 162 112 131 231 184 141 190 148 187 195 208 180 188 198 109 138 125 95 64 63 75 95 235 279 342 104 125 106 112 126
230 154 150 146 146 147 144 152 153 154 153 145 138 127 129 140 154 179 178 181 182 153 154 186 176 184 353 242 206 200 201 198 138 157 150 189 81 120 86 136 265 73 329 344 187 177 133 102 86 97 90 66 105 215 159 1 315 81 111 106 109 122
179 190 150 142 145 149 149 151 152 154 141 133 140 141 135 147 151 168 206 199 167 153 153 158 100 156 226 250 229 177 166 165 114 126 142 143 143 175 191 176 170 127 69 58 9 4 66 108 114 64 70 81 170 178 90 257 283 41 27 11 20 103
167 179 167 148 146 144 137 141 151 150 138 137 136 143 143 164 175 171 188 201 171 164 142 160 149 179 237 7 310 273 186 107 167 126 98 149 191 144 72 281 99 135 118 64 32 24 32 33 63 73 115 145 129 46 60 265 14 71 96 112 147 209
171 167 173 146 140 139 135 142 144 142 140 134 143 146 152 154 162 165 178 178 165 158 146 114 139 192 127 84 264 210 222 167 151 137 152 148 183 110 95 182 191 119 84 85 77 34 40 51 35 93 71 84 80 173 217 53 57 86 129 137 160 142
165 157 159 147 137 127 134 141 147 148 139 143 145 145 150 144 150 154 151 147 134 135 129 120 176 114 135 167 247 169 211 154 151 174 162 157 167 151 121 117 64 72 93 105 98 58 108 98 123 90 88 101 125 120 44 66 55 96 103 158 55 80
165 155 157 148 133 137 145 137 149 144 141 147 146 154 144 152 144 131 143 142 158 146 138 118 99 201 236 208 218 183 145 191 150 158 177 155 112 105 133 87 89 105 96 113 111 64 300 134 58 77 87 92 104 106 66 53 62 89 126 139 83 69
167 158 146 149 134 136 135 148 141 143 148 148 124 141 139 141 125 135 149 144 150 150 138 161 135 209 232 224 173 168 148 166 162 125 153 119 115 135 138 149 129 113 116 120 125 142 195 170 103 98 104 99 99 126 128 106 344 88 93 98 96 88
161 158 144 143 141 136 132 131 133 139 142 135 122 106 114 149 131 113 174 148 156 175 170 183 177 226 213 200 195 170 157 161 154 142 150 181 133 138 144 117 140 160 139 119 132 123 131 110 115 117 86 83 105 98 105 112 112 118 106 97 86 99
146 154 152 138 139 138 129 126 129 139 124 69 77 223 167 163 134 152 166 168 160 195 184 189 200 218 167 193 171 183 141 182 131 141 173 155 125 124 104 148 125 129 96 120 125 123 140 122 96 90 84 71 71 72 83 92 92 42 77 83 100 98
146 160 170 136 144 136 130 138 148 142 129 124 159 146 183 141 142 137 151 170 159 224 174 196 203 236 171 186 184 172 146 180 137 156 187 146 131 145 136 139 119 131 132 106 103 114 121 109 114 96 89 75 72 76 89 80 86 119 101 87 102 135
155 174 179 159 154 146 147 157 151 149 153 126 180 159 158 138 142 140 157 176 192 187 167 200 199 223 226 165 170 131 145 160 180 147 118 99 136 134 130 111 126 109 140 135 123 150 150 128 115 84 95 114 112 86 92 106 110 102 108 86 83 102
151 160 207 181 153 141 165 159 148 154 155 142 147 151 136 139 159 148 173 191 138 211 170 211 196 206 204 162 153 148 152 167 163 129 110 150 126 136 134 151 133 133 141 120 124 135 130 138 124 131 144 116 94 88 105 95 107 115 134 128 106 91
148 160 195 192 144 142 156 129 135 136 129 121 125 139 134 129 129 163 166 177 131 170 195 200 222 185 181 162 174 147 164 138 168 144 146 150 147 152 172 150 157 153 150 126 106 114 104 34 115 100 82 101 117 121 79 92 59 54 30 88 68 66
163 179 166 155 109 128 83 71 79 73 66 79 110 75 57 87 137 154 162 152 190 147 183 211 199 174 172 182 162 151 162 170 181 158 152 146 169 153 154 169 151 173 141 139 141 94 106 108 108 134 141 142 136 134 123 95 111 91 160 119 132 132
162 166 158 125 121 89 97 100 105 101 86 86 71 88 87 83 54 136 140 171 169 198 201 184 181 168 153 166 177 171 170 171 149 163 165 169 168 181 169 173 158 122 181 156 133 118 115 115 117 64 107 132 124 104 130 142 122 48 54 78 161 158
167 164 150 126 130 119 151 139 139 138 135 136 133 142 157 173 171 175 183 184 192 174 202 167 190 182 161 165 178 173 171 164 156 160 185 167 178 181 182 178 167 159 175 94 112 139 128 123 119 132 96 84 86 135 142 157 152 132 208 130 130 146
169 164 147 146 138 130 141 163 159 162 155 166 150 161 145 156 172 193 167 185 189 182 183 175 178 185 140 154 165 170 183 171 158 169 167 166 203 177 188 193 156 167 159 121 131 143 146 156 138 140 136 131 136 102 86 147 131 137 125 351 51 177
168 152 119 118 118 79 128 152 166 163 161 161 147 154 163 162 172 174 178 184 176 170 191 176 175 158 153 152 157 164 175 169 156 164 144 157 201 168 74 177 154 151 125 127 130 136 139 132 153 127 137 148 141 132 133 105 138 155 132 139 154 163
155 132 85 107 87 119 191 160 144 148 147 130 143 145 157 158 164 184 190 187 185 168 180 163 176 155 167 156 155 160 164 153 163 156 178 179 180 160 140 71 117 115 125 118 138 120 104 112 107 135 145 126 167 134 141 105 147 152 128 136 141 154
146 94 94 114 111 222 181 129 106 192 158 125 136 140 161 166 177 135 178 193 188 165 170 155 156 152 158 143 156 154 156 158 160 162 195 160 164 142 137 122 122 137 141 123 101 107 116 120 130 137 108 90 100 123 107 115 69 94 83 114 140 149
125 111 121 140 170 185 170 140 159 189 168 159 167 149 142 178 172 145 189 199 182 158 144 156 136 137 152 143 156 151 152 137 162 139 211 136 155 140 127 126 160 148 155 141 125 134 123 127 117 104 101 121 192 174 153 150 142 159 158 143 146 147
100 109 133 138 158 169 157 151 201 194 186 190 169 155 169 190 177 171 176 174 170 149 157 154 156 143 168 141 121 134 141 140 150 159 187 113 133 129 132 132 143 138 138 129 143 139 164 163 133 132 128 157 151 87 103 119 148 173 167 163 145 137
107 131 144 143 139 148 135 167 199 204 211 198 190 167 182 196 174 169 167 168 155 165 152 147 152 147 143 123 136 134 137 131 110 131 130 148 129 103 114 138 151 152 142 147 143 146 140 160 138 125 139 122 126 132 110 130 157 168 127 129 141 143
143 160 155 149 148 156 158 161 176 207 262 197 207 156 134 162 179 163 172 162 168 162 143 151 152 145 119 127 128 137 133 137 130 145 145 108 109 107 145 144 146 168 150 141 134 143 156 136 128 124 135 143 148 155 169 164 158 124 144 140 155 163
140 155 167 163 160 162 153 149 158 181 232 260 218 207 184 140 8 95 180 168 163 137 153 153 158 137 131 143 137 156 159 139 131 131 117 117 118 115 99 27 55 141 111 129 143 143 139 125 144 147 125 125 121 153 204 169 138 181 157 161 165 179
157 172 175 173 173 157 144 144 142 141 196 206 202 188 192 127 109 219 205 168 147 141 144 148 140 129 144 156 132 146 130 128 128 110 125 134 137 137 141 139 70 90 157 161 143 155 136 136 162 138 142 159 146 193 156 119 153 171 205 140 175 275
171 179 179 181 173 143 147 150 151 163 180 179 183 172 180 167 179 242 168 156 140 144 130 127 128 130 155 132 143 145 161 118 100 119 125 146 163 156 141 146 136 151 143 156 150 173 145 147 159 133 118 163 144 181 138 129 113 116 80 120 167 244